Location: Brunsen
(51.8651°N, 9.8610°E)
Time: 09:12:16
(UTC+00:00)

CZ-2C R/B - Pass Details

Date: 23 May 2024
Orbit: 784 x 868 km, 98.3° (Epoch: 23 June)

Event Time Altitude Azimuth Distance (km) Brightness Sun altitude
Exits shadow 02:29:16 - 209° (SSW) 2,640 4.7 -6.3°
Reaches altitude 10° 02:30:12 10° 215° (SW) 2,340 4.4 -6.2°
Maximum altitude 02:34:22 24° 269° (W) 1,569 3.7 -5.7°
Drops below altitude 10° 02:38:34 10° 323° (NW) 2,361 5.1 -5.3°
Sets 02:41:21 0° 337° (NNW) 3,303 6.1 -4.9°
